Presure
161 165 161 158 166 165 163 167 182 185 186 167 163 165 155 177 155 153 161 160 185 172 112 156 141 185 143 158 150 169 192 178
156 140 166 173 166 162 169 181 160 176 168 170 166 151 152 207 167 173 170 153 173 167 184 129 183 154 176 139 153 149 164 182
134 168 181 162 162 143 177 172 168 165 169 153 175 194 177 179 158 164 166 160 187 173 153 166 177 177 131 168 169 149 156 153
156 155 152 172 155 163 155 160 154 184 172 181 222 190 155 189 177 192 167 177 152 150 160 153 161 165 183 140 161 150 162 161
156 163 171 163 183 166 166 171 170 168 178 187 223 196 178 174 177 154 163 195 186 135 176 183 179 158 128 167 152 148 169 165
165 157 162 171 172 166 165 169 176 168 204 216 225 178 195 180 174 171 181 160 195 170 226 111 117 131 159 177 154 130 174 183
169 177 175 162 157 164 167 158 171 192 192 194 206 191 201 188 182 174 171 212 183 200 183 182 146 161 164 176 164 134 152 166
171 167 165 176 168 169 158 165 174 194 175 196 181 199 180 171 201 180 182 250 232 183 163 161 174 180 169 172 173 136 183 177
160 152 174 157 171 168 160 171 171 181 189 180 206 200 174 177 180 266 262 242 230 183 193 168 179 182 165 169 163 86 89 170
173 171 167 175 162 160 170 169 174 181 185 191 193 179 174 147 199 181 265 233 207 208 193 185 185 166 179 181 188 171 179 154
164 171 180 162 170 162 170 172 174 177 191 211 194 177 171 199 167 219 269 277 223 235 201 186 191 182 133 182 178 169 180 138
158 180 159 163 168 162 164 168 180 174 187 205 118 190 79 179 263 198 283 244 268 232 213 192 189 197 200 173 188 174 195 180
175 161 166 163 164 165 163 174 171 173 189 207 167 176 179 184 194 244 266 238 235 199 245 222 200 197 203 199 178 192 180 157
166 166 162 162 160 166 171 169 164 186 204 200 183 176 175 173 243 235 222 229 189 203 208 176 217 197 176 145 131 196 177 143
168 162 155 159 165 173 167 170 185 190 198 188 187 171 172 173 199 213 207 207 200 199 194 189 196 173 181 185 182 170 150 196
168 160 161 164 171 170 177 174 185 205 201 190 178 175 171 243 244 229 205 194 208 202 203 196 192 192 205 197 199 201 144 182
163 164 166 168 168 177 173 176 189 206 200 189 177 169 163 213 248 207 199 193 220 201 193 232 248 217 205 197 185 196 192 189
173 169 168 167 171 168 178 182 199 179 194 164 179 167 164 203 196 209 207 195 209 225 217 230 239 251 262 265 288 290 288 225
163 167 167 164 169 170 192 187 183 191 179 186 185 188 172 207 207 215 233 223 199 228 235 236 242 242 261 269 290 328 312 205
171 170 166 162 170 175 190 183 182 202 186 184 179 185 204 209 202 243 235 215 215 232 234 244 244 279 261 269 286 280 274 282
Wind_Speed
67 65 64 65 61 59 61 59 58 60 57 49 55 60 54 56 63 64 62 62 44 54 25 46 29 33 28 44 45 27 13 14
67 64 63 59 60 64 59 62 62 64 57 61 62 62 63 45 58 53 52 62 54 53 49 38 38 35 30 30 27 29 22 17
62 67 57 66 67 63 58 59 60 63 67 62 65 58 57 56 59 55 55 56 41 46 56 57 51 34 40 30 35 25 30 30
69 68 70 58 65 60 66 63 61 67 68 68 48 57 56 57 63 52 56 49 64 54 62 64 56 51 28 35 38 24 47 37
72 67 60 65 58 63 66 67 68 68 69 58 51 47 63 65 68 47 54 47 48 41 55 39 38 46 47 64 40 22 49 53
79 71 68 65 65 65 66 67 74 69 66 59 52 52 49 62 65 65 65 53 33 50 26 26 47 32 65 69 35 51 59 68
76 64 65 71 68 62 67 72 75 73 68 62 52 53 45 54 58 65 66 44 44 29 30 34 51 65 69 79 50 49 19 63
71 68 67 60 72 66 72 78 82 80 72 68 63 58 64 61 56 63 64 33 31 35 47 59 61 70 71 74 74 49 85 66
75 74 66 71 69 69 72 77 77 78 80 71 65 63 73 71 64 41 37 37 34 44 50 57 61 73 68 75 59 28 28 69
74 70 70 70 71 74 80 79 85 86 83 78 71 73 75 65 66 62 38 42 39 48 62 60 68 63 75 87 89 71 87 60
81 73 66 75 79 77 82 84 86 88 84 72 73 80 80 73 67 42 45 45 47 52 59 60 67 68 47 81 79 77 84 57
84 66 77 81 82 81 84 88 92 88 88 71 50 77 36 83 56 46 44 42 50 51 58 60 56 68 79 66 93 81 100 80
67 80 78 81 83 85 87 93 89 88 86 72 67 86 86 85 74 47 47 45 40 41 63 66 67 72 80 81 69 83 78 62
81 81 82 85 86 90 90 91 90 90 78 74 82 89 90 90 50 45 41 42 42 47 52 51 69 63 62 53 48 87 76 57
81 83 85 87 90 90 90 92 94 89 79 82 81 86 93 93 49 50 48 47 51 52 55 58 68 65 70 74 76 75 72 87
83 87 88 89 90 91 94 94 95 84 81 81 87 91 95 75 58 51 52 55 51 54 59 65 71 73 81 85 92 95 54 83
88 89 89 90 91 94 94 96 94 81 79 81 89 94 94 85 69 65 65 66 55 60 65 64 69 74 81 85 84 94 94 91
85 89 90 93 94 94 100 98 88 93 81 92 88 94 98 83 78 76 74 74 70 73 74 74 74 76 81 81 83 81 81 93
90 89 92 92 97 98 100 97 95 89 91 87 85 85 99 91 86 86 84 81 82 85 84 84 83 84 80 79 76 72 67 54
89 91 92 94 100 101 98 94 95 87 87 87 96 89 100 101 93 95 88 87 89 91 91 88 89 82 79 77 67 63 67 72
Wind_Direction
330 327 326 325 325 321 317 318 330 337 333 310 309 314 321 307 316 318 313 315 310 305 301 308 299 313 291 316 300 311 316 312
325 327 326 320 319 318 322 331 312 331 317 316 313 311 314 313 313 311 308 320 306 318 301 261 315 316 292 278 304 311 337 309
325 327 323 319 316 321 324 323 326 319 320 317 315 311 312 309 321 315 310 318 304 311 316 321 321 308 271 286 300 309 320 309
320 324 321 320 319 321 317 323 319 326 320 317 321 308 314 306 309 310 313 307 315 305 310 310 304 301 290 277 300 307 313 312
319 325 325 319 326 325 330 326 324 321 320 320 328 306 308 306 305 330 320 306 300 296 302 316 299 297 275 300 281 292 303 304
319 321 321 324 332 326 321 324 326 316 329 332 328 321 307 302 309 314 312 322 297 304 272 298 302 263 304 290 299 276 305 294
316 326 327 324 319 322 322 317 324 329 329 325 324 316 312 305 307 311 316 302 304 257 263 228 288 282 291 282 283 265 263 294
320 325 322 320 321 325 317 324 327 332 326 328 318 320 309 316 315 312 312 263 252 250 271 288 257 254 280 284 280 268 285 277
319 317 320 314 324 323 318 321 322 328 330 322 325 320 317 317 316 306 277 266 246 269 234 283 248 245 287 281 294 297 306 280
320 319 319 324 318 317 321 322 326 330 326 324 322 317 316 323 320 319 291 268 282 238 229 247 246 284 259 259 262 289 281 263
316 322 321 318 321 317 322 323 324 325 325 326 321 317 318 322 322 306 288 266 261 240 230 262 253 262 260 264 270 274 277 273
312 319 316 317 319 318 320 322 323 322 323 324 318 321 321 321 313 306 297 279 261 258 240 262 273 263 257 273 261 275 269 283
315 315 317 317 318 319 319 320 320 320 320 323 318 317 318 322 323 309 297 286 278 292 251 252 258 266 263 259 276 271 281 277
313 315 316 316 317 317 316 318 316 319 323 322 316 317 319 324 319 311 302 289 294 282 275 293 261 266 281 294 302 267 279 286
313 314 312 314 315 315 314 315 317 318 319 319 318 319 319 321 319 314 307 296 294 288 285 287 276 294 289 279 280 275 284 267
311 311 312 313 313 313 316 315 316 319 320 320 318 317 317 330 326 315 306 303 289 284 277 278 278 279 265 269 270 270 288 282
307 308 310 310 311 315 314 314 316 320 320 318 315 315 318 330 329 319 311 307 304 291 290 287 295 279 274 273 283 270 271 274
306 308 309 309 312 312 313 313 316 314 316 314 313 313 316 324 319 323 316 306 310 315 305 307 304 302 300 296 293 289 283 270
304 306 307 307 310 310 312 312 313 312 312 314 312 315 312 326 322 323 325 322 307 321 318 312 310 308 303 298 293 292 289 280
304 306 306 306 306 308 309 312 311 317 313 314 316 315 326 326 320 327 324 322 319 322 318 315 311 307 308 307 301 292 286 283